AirNav   Everest Fuels
 
 504 users online  

N27 Bradford County Airport
Towanda, Pennsylvania, USA

GOING TO TOWANDA?


FAA INFORMATION EFFECTIVE 18 JUNE 2020

Location

FAA Identifier: N27
Lat/Long: 41-44-24.0000N 076-26-49.7000W
41-44.400000N 076-26.828333W
41.7400000,-76.4471389
(estimated)
Elevation: 730.3 ft. / 222.6 m (surveyed)
Variation: 12W (2000)
From city: 2 miles S of TOWANDA, PA
Time zone: UTC -4 (UTC -5 during Standard Time)
Zip code: 18848

Airport Operations

Airport use: Open to the public
Activation date: 07/1938
Control tower: no
ARTCC: NEW YORK CENTER
FSS: WILLIAMSPORT FLIGHT SERVICE STATION
NOTAMs facility: IPT (NOTAM-D service available)
Attendance: M-F 0800-1700, MAR-OCT SAT-SUN 0800-1600, NOV-FEB SAT-SUN UNATTENDED
FOR SVC AFT HRS CALL 570-637-4902.
Wind indicator: lighted
Segmented circle: yes
Lights: ACTVT REIL RWY 05 & 23; PAPI RWY 05 & 23; MIRL RWY 05/23 - 123.0.
Beacon: white-green (lighted land airport)
Operates sunset to sunrise.

Airport Communications

CTAF/UNICOM: 123.0
WX AWOS-3: 119.925 (570-265-1024)
BINGHAMTON APPROACH: 118.6
BINGHAMTON DEPARTURE: 118.6
  • APCH/DEP SVC PRVDD BY NEW YORK ARTCC ON FREQS 132.175/298.9 (ELK MOUNTAIN RCAG) WHEN BINGHAMTON APCH CTL CLSD.

Nearby radio navigation aids

VOR radial/distance  VOR name  Freq  Var
FQMr040/28.2WILLIAMSPORT VOR/DME114.4009W
CFBr219/28.6BINGHAMTON VOR/DME112.2010W
ULWr141/33.4ELMIRA VOR/DME109.6512W

 
NDB name  Hdg/Dist  Freq  Var  ID
ALPINE167/33.124512WALP .- .-.. .--.

Airport Services

Fuel available: 100LL JET-A
Parking: hangars and tiedowns
Airframe service: MAJOR
Powerplant service: MAJOR
Bottled oxygen: NONE
Bulk oxygen: NONE

Runway Information

Runway 5/23

Dimensions: 4301 x 75 ft. / 1311 x 23 m
Surface: asphalt, in fair condition
Weight bearing capacity: 
Single wheel: 12.0
Runway edge lights: medium intensity
RUNWAY 5  RUNWAY 23
Latitude: 41-44.110687N41-44.690593N
Longitude: 076-27.099407W076-26.556652W
Elevation: 730.2 ft.713.5 ft.
Traffic pattern: leftleft
Runway heading: 047 magnetic, 035 true227 magnetic, 215 true
Markings: nonprecision, in fair conditionnonprecision, in fair condition
Visual slope indicator: 2-light PAPI on left (3.00 degrees glide path)2-light PAPI on left (3.00 degrees glide path)
Runway end identifier lights: yesyes
Touchdown point: yes, no lightsyes, no lights

Airport Ownership and Management from official FAA records

Ownership: Publicly-owned
Owner: BRADFORD COUNTY AIRPORT AUTHORITY
415 AIRPORT RD.
TOWANDA, PA 18848
Phone 570-265-4900
Manager: KIERAN SPAULDING
415 AIRPORT RD.
TOWANDA, PA 18848
Phone 570-265-4900

Airport Operational Statistics

Aircraft based on the field: 30
Single engine airplanes: 28
Multi engine airplanes: 2
    
Aircraft operations: avg 63/day *
65% transient general aviation
35% local general aviation
<1% military
* for 12-month period ending 16 July 2019

Additional Remarks

COLD TEMPERATURE RESTRICTED AIRPORT. ALTITUDE CORRECTION REQUIRED AT OR BELOW -25C.
FOR CD CTC NEW YORK ARTCC AT 631-468-1425.

Instrument Procedures

NOTE: All procedures below are presented as PDF files. If you need a reader for these files, you should download the free Adobe Reader.

NOT FOR NAVIGATION. Please procure official charts for flight.
FAA instrument procedures published for use from 18 June 2020 at 0901Z to 16 July 2020 at 0900Z.

 
IAPs - Instrument Approach Procedures
RNAV (GPS) RWY 23   download (198KB)
RNAV (GPS)-A   download (192KB)
NOTE: Special Take-Off Minimums/Departure Procedures apply   download (283KB)

Other nearby airports with instrument procedures:

KCZG - Tri-Cities Airport (26 nm NE)
KELM - Elmira/Corning Regional Airport (32 nm NW)
9N3 - Seamans Field Airport (32 nm E)
KBGM - Greater Binghamton Airport/Edwin A Link Field (35 nm NE)
KIPT - Williamsport Regional Airport (37 nm SW)
 
Loc | Ops | Rwys | IFR | FBO | Links
Com | Nav | Svcs | Stats | Notes
Area around N27 (Bradford County Airport)
 
Road maps at: MapQuest Bing Google
 
Aerial photo
WARNING: Photo may not be current or correct
Aerial photo of N27 (Bradford County Airport)
looking southwest

Do you have a better or more recent aerial photo of Bradford County Airport that you would like to share? If so, please send us your photo.

 
Sectional chart

 
Airport distance calculator
Flying to Bradford County Airport? Find the distance to fly.

From to N27

Sunrise and sunset
Times for 15-Jul-2020
 Local
(UTC-4)
 Zulu
(UTC)
Morning civil twilight05:1309:13
Sunrise05:4609:46
Sunset20:3800:38
Evening civil twilight21:1101:11

Current date and time
Zulu (UTC)  15-Jul-2020 11:05:54
Local (UTC-4)  15-Jul-2020 07:05:54
 
METAR
KELM 
32nm NW 
151053Z AUTO 29003KT M1/4SM R24/0600V0800FT FG VV001 14/14 A3019 RMK AO2 SLP218 T01440144
KBGM 
35nm NE 
151053Z AUTO 00000KT 10SM CLR 17/15 A3020 RMK AO2 SLP219 T01670150 $
KIPT 
36nm SW 
151054Z 00000KT 10SM CLR 18/16 A3016 RMK AO2 SLP210 T01780156
KAVP 
40nm SE 
151054Z 12005KT 10SM CLR 17/15 A3019 RMK AO2 SLP214 T01720150 PNO $
KN38 
43nm W 
151055Z AUTO 00000KT M1/4SM FG VV000 13/13 A3021 RMK AO2
KITH 
44nm N 
151056Z 08004KT 10SM CLR 16/16 A3020 RMK AO2 SLP221 T01610156
KHZL 
50nm SE 
151057Z AUTO 00000KT 10SM CLR 16/15 A3023 RMK AO2
TAF
KELM 
32nm NW 
151004Z 1510/1606 00000KT 6SM BR BKN003 TEMPO 1510/1512 2SM BR FM151200 00000KT 4SM BR SCT002 FM151230 00000KT P6SM SCT050
KBGM 
35nm NE 
150530Z 1506/1606 VRB03KT P6SM SCT080 TEMPO 1512/1515 BKN025 FM151500 VRB03KT P6SM SCT035
KIPT 
36nm SW 
150855Z 1509/1606 00000KT P6SM SCT250 FM151300 14004KT P6SM SKC FM160500 10003KT P6SM BKN009
NOTAMs
Click for the latest NOTAMs
NOTAMs are issued by the DoD/FAA and will open in a separate window not controlled by AirNav.

 

 
 

FBO, Fuel Providers, and Aircraft Ground Support

  
 Business Name 
 
 Contact 
 
 Services / Description 
 
Fuel Prices
 
Comments
  
Bradford County Airport Authority 570-265-4900
no information available

If you are affiliated with Bradford County Airport Authority and would like to show here your services, contact info, web link, logo, and more, click here
100LL Jet A
SS $3.84 $2.75 
 Updated 13-Jul-2020
 
   write
SS=Self service
Update Fuel Prices
 

Would you like to see your business listed on this page?

 If your business provides an interesting product or service to pilots, flight crews, aircraft, or users of the Bradford County Airport, you should consider listing it here.  To start the listing process, click on the button below
 
Add a business
 

Other Pages about Bradford County Airport

Update a link
 
Copyright © AirNav, LLC. All rights reserved. Privacy Policy  Contact